Weather History for KSIF - September, 2013

Change the Weather History Date:

Monday, September 9, 2013

  Actual Average (KGSO) Record (KGSO)
Temperature  
Mean Temperature 72 °F 73 °F  
Max Temperature 83 °F 82 °F 99 °F (1939)
Min Temperature 61 °F 63 °F 47 °F (1951)
Degree Days  
Heating Degree Days 0 0  
Month to date heating degree days 0  
Since 1 July heating degree days 1  
Cooling Degree Days 7 8  
Month to date cooling degree days 80  
Year to date cooling degree days 1342  
Growing Degree Days 22 (Base 50)    
Moisture  
Dew Point 67 °F    
Average Humidity 87    
Maximum Humidity 100    
Minimum Humidity 64    
Precipitation  
Precipitation 0.00 in 0.16 in 1.40 in (1988)
Month to date precipitation 1.37  
Year to date precipitation 30.16  
Sea Level Pressure  
Sea Level Pressure 30.12 in    
Wind  
Wind Speed 1 mph (NNE)    
Max Wind Speed 6 mph    
Max Gust Speed -    
Visibility 3 miles    
Events      
T = Trace of Precipitation, MM = Missing Value Source: NWS Daily Summary

Daily Weather History Graph

Daily Weather History Graph

Search for Another Location

Airport or City:

Trip Planner

Search our weather history database for the weather conditions in past years. The results will help you decide how hot, cold, wet, or windy it might be!

Date:

Astronomy

Sep. 09, 2013 Rise Set
Actual Time 6:57 AM EDT 7:35 PM EDT
Civil Twilight 6:31 AM EDT 8:01 PM EDT
Nautical Twilight 6:00 AM EDT 8:31 PM EDT
Astronomical Twilight 5:29 AM EDT 9:03 PM EDT
Moon 11:08 AM EDT (9/9) 9:59 PM EDT (9/9)
Length of Visible Light 13h 30m
Length of Day
12h 38m
Waxing Crescent, 19% of the Moon is Illuminated
Sep 9
Waxing Crescent
Sep 12
First Quarter
Sep 19
Full
Sep 26
Last Quarter
Oct 4
New

Hourly Weather History & Observations

Time (EDT) Temp. Heat Index Dew Point Humidity Pressure Visibility Wind Dir Wind Speed Gust Speed Precip Events Conditions
12:15 AM 66.4 °F - 66.2 °F 99% 30.02 in 1.8 mi Calm Calm - N/A   Mist
12:35 AM 65.8 °F - 65.7 °F 99% 30.03 in 1.2 mi Calm Calm - N/A   Scattered Clouds
12:55 AM 65.7 °F - 65.5 °F 99% 30.03 in 1.5 mi Calm Calm - N/A   Scattered Clouds
1:15 AM 65.3 °F - 64.9 °F 99% 30.03 in 1.2 mi Calm Calm - N/A   Mist
1:35 AM 64.6 °F - 64.4 °F 99% 30.03 in 1.2 mi Calm Calm - N/A   Mist
1:55 AM 64.8 °F - 64.6 °F 99% 30.04 in 1.8 mi Calm Calm - N/A   Mist
2:15 AM 64.8 °F - 64.6 °F 99% 30.04 in 1.0 mi Calm Calm - N/A   Mist
2:35 AM 64.6 °F - 64.4 °F 99% 30.04 in 1.8 mi Calm Calm - N/A   Mist
2:55 AM 64.4 °F - 64.0 °F 99% 30.04 in 1.5 mi Calm Calm - N/A   Scattered Clouds
3:15 AM 63.5 °F - 63.5 °F 100% 30.03 in 1.8 mi Calm Calm - N/A   Mist
3:35 AM 64.2 °F - 63.9 °F 99% 30.04 in 1.5 mi Calm Calm - N/A   Mist
3:55 AM 64.4 °F - 64.4 °F 100% 30.05 in 1.2 mi Calm Calm - N/A   Mist
4:15 AM 63.1 °F - 63.0 °F 99% 30.05 in 1.0 mi Calm Calm - N/A   Mist
4:35 AM 63.0 °F - 63.0 °F 100% 30.06 in 1.2 mi Calm Calm - N/A   Mostly Cloudy
4:55 AM 62.6 °F - 62.6 °F 100% 30.06 in 1.2 mi Calm Calm - N/A   Scattered Clouds
5:15 AM 62.6 °F - 62.6 °F 100% 30.07 in 0.8 mi Calm Calm - N/A   Mist
5:35 AM 61.7 °F - 61.7 °F 100% 30.07 in 1.5 mi Calm Calm - N/A   Mist
5:55 AM 61.7 °F - 61.7 °F 100% 30.08 in 0.8 mi Calm Calm - N/A   Mist
6:15 AM 61.9 °F - 61.9 °F 100% 30.08 in 1.8 mi Calm Calm - N/A   Mist
6:35 AM 65.1 °F - 65.1 °F 100% 30.09 in 2.5 mi Calm Calm - N/A   Clear
6:55 AM 66.2 °F - 66.2 °F 100% 30.10 in 2.5 mi Calm Calm - N/A   Clear
7:15 AM 66.6 °F - 66.6 °F 100% 30.11 in 1.8 mi North 3.5 mph - N/A   Mist
7:35 AM 67.1 °F - 66.9 °F 99% 30.12 in 1.8 mi Calm Calm - N/A   Mist
7:55 AM 67.5 °F - 67.3 °F 99% 30.12 in 1.8 mi Calm Calm - N/A   Mist
8:15 AM 68.7 °F - 68.4 °F 99% 30.13 in 2.5 mi Calm Calm - N/A   Clear
8:35 AM 69.8 °F - 68.9 °F 97% 30.13 in 3.0 mi NE 3.5 mph - N/A   Clear
8:55 AM 70.9 °F - 68.5 °F 92% 30.14 in 4.0 mi NNE 5.8 mph - N/A   Scattered Clouds
9:15 AM 70.9 °F - 68.4 °F 92% 30.14 in 4.0 mi NNE 3.5 mph - N/A   Scattered Clouds
9:35 AM 72.1 °F - 68.9 °F 89% 30.15 in 4.0 mi NE 5.8 mph - N/A   Mostly Cloudy
9:55 AM 73.4 °F - 69.1 °F 86% 30.16 in 5.0 mi North 4.6 mph - N/A   Overcast
10:15 AM 73.4 °F - 68.7 °F 85% 30.16 in 5.0 mi NNE 5.8 mph - N/A   Overcast
10:35 AM 74.3 °F - 68.7 °F 83% 30.17 in 5.0 mi NE 4.6 mph - N/A   Haze
10:55 AM 74.8 °F - 68.9 °F 82% 30.17 in 5.0 mi NNE 5.8 mph - N/A   Haze
11:15 AM 75.6 °F - 68.7 °F 79% 30.17 in 4.0 mi ENE 3.5 mph - N/A   Haze
11:35 AM 77.0 °F - 69.1 °F 76% 30.17 in 5.0 mi North 4.6 mph - N/A   Haze
11:55 AM 76.1 °F - 69.1 °F 79% 30.18 in 5.0 mi North 4.6 mph - N/A   Haze
12:15 PM 77.2 °F - 68.7 °F 75% 30.17 in 5.0 mi North 3.5 mph - N/A   Haze
12:35 PM 78.6 °F - 68.5 °F 71% 30.17 in 4.0 mi NNE 3.5 mph - N/A   Haze
12:55 PM 79.5 °F - 68.7 °F 69% 30.17 in 5.0 mi NE 3.5 mph - N/A   Haze
1:15 PM 79.9 °F - 69.1 °F 69% 30.17 in 5.0 mi Calm Calm - N/A   Haze
1:35 PM 80.6 °F 83.6 °F 69.1 °F 68% 30.16 in 5.0 mi NNE 4.6 mph - N/A   Haze
1:55 PM 80.1 °F 82.8 °F 68.7 °F 68% 30.16 in 5.0 mi NE 3.5 mph - N/A   Haze
2:15 PM 82.0 °F 85.3 °F 68.9 °F 64% 30.16 in 5.0 mi Calm Calm - N/A   Haze
2:35 PM 81.7 °F 84.9 °F 68.9 °F 65% 30.15 in 4.0 mi NNE 4.6 mph - N/A   Haze
2:55 PM 82.6 °F 86.1 °F 69.3 °F 64% 30.15 in 5.0 mi ENE 4.6 mph - N/A   Haze
3:15 PM 81.1 °F 84.4 °F 69.1 °F 67% 30.14 in 5.0 mi North 3.5 mph - N/A   Haze
3:35 PM 82.6 °F 86.1 °F 69.1 °F 64% 30.14 in 5.0 mi Calm Calm - N/A   Haze
3:55 PM 82.4 °F 86.1 °F 69.6 °F 65% 30.14 in 4.0 mi Calm Calm - N/A   Haze
4:15 PM 82.2 °F 86.0 °F 69.8 °F 66% 30.14 in 4.0 mi North 4.6 mph - N/A   Haze
4:35 PM 83.1 °F 87.1 °F 70.0 °F 64% 30.13 in 5.0 mi NE 4.6 mph - N/A   Haze
4:55 PM 83.1 °F 87.1 °F 69.8 °F 64% 30.13 in 5.0 mi Calm Calm - N/A   Haze
5:15 PM 82.6 °F 86.1 °F 69.1 °F 64% 30.13 in 4.0 mi NE 3.5 mph - N/A   Haze
5:35 PM 82.6 °F 86.8 °F 70.7 °F 67% 30.12 in 5.0 mi Calm Calm - N/A   Haze
5:55 PM 82.0 °F 85.9 °F 70.2 °F 67% 30.12 in 4.0 mi Calm Calm - N/A   Haze
6:15 PM 81.9 °F 86.2 °F 71.1 °F 70% 30.12 in 5.0 mi Calm Calm - N/A   Haze
6:35 PM 81.1 °F 85.0 °F 71.1 °F 71% 30.12 in 5.0 mi Calm Calm - N/A   Haze
6:55 PM 79.5 °F - 71.6 °F 77% 30.13 in 5.0 mi Calm Calm - N/A   Haze
7:15 PM 76.5 °F - 72.1 °F 86% 30.13 in 4.0 mi Calm Calm - N/A   Haze
7:35 PM 74.7 °F - 71.4 °F 90% 30.13 in 4.0 mi Calm Calm - N/A   Clear
7:55 PM 72.7 °F - 70.7 °F 93% 30.14 in 4.0 mi Calm Calm - N/A   Clear
8:15 PM 71.2 °F - 69.8 °F 95% 30.14 in 3.0 mi Calm Calm - N/A   Clear
8:35 PM 70.2 °F - 69.3 °F 97% 30.14 in 3.0 mi Calm Calm - N/A   Clear
8:55 PM 69.6 °F - 68.9 °F 98% 30.15 in 2.5 mi Calm Calm - N/A   Clear
9:15 PM 69.1 °F - 68.4 °F 98% 30.15 in 2.0 mi Calm Calm - N/A   Clear
9:35 PM 68.7 °F - 68.2 °F 98% 30.16 in 1.5 mi Calm Calm - N/A   Mist
9:55 PM 68.4 °F - 67.6 °F 98% 30.16 in 1.8 mi Calm Calm - N/A   Mist
10:15 PM 68.2 °F - 67.6 °F 98% 30.16 in 1.0 mi Calm Calm - N/A   Mist
10:35 PM 67.6 °F - 67.1 °F 98% 30.16 in 1.2 mi Calm Calm - N/A   Mist
10:55 PM 67.3 °F - 66.9 °F 99% 30.17 in 0.8 mi Calm Calm - N/A   Mist
11:15 PM 66.6 °F - 66.4 °F 99% 30.18 in 1.0 mi Calm Calm - N/A   Mist
11:35 PM 66.0 °F - 65.7 °F 99% 30.18 in 1.0 mi Calm Calm - N/A   Mist
11:55 PM 65.8 °F - 65.5 °F 99% 30.18 in 1.0 mi Calm Calm - N/A   Mist